STARLINK-31949, 59891

Orbit data source: Space-Track

STARLINK-31949, 59891 is a payload satellite owned by SpaceX/Seattle (US) in LEO that was launched on Tue, 28 May 2024 UTC via an FALCON 9 launch vehicle from the Air Force Eastern Test Range (AFETR). Payload-class satellites include a variety of spacecraft equipped with specific instruments for various scientific and technological missions. These include communications satellites like Starlink; space stations such as the ISS; scientific satellites like the Hubble; Earth observation satellites from companies like Planet Labs, Umbra, and HawkEye 360; GPS; miniature CubeSats for education and research; and military/defense satellites.

Loading next visibility...
Identifier
59891, 2024-100G
Orbit
LEO
Country
Flag of USUS
Related business
Manufacturer
SpaceX/Seattle
Mission
Operational Commercial Communications
Bus & Motor
STARLINK V2M, Unknown motor
Mass
730 kg wet, ~700 kg dry
Launch date (UTC)
2024-05-28 (2 years ago)
Launch vehicle
FALCON 9
Launch site
Air Force Eastern Test Range (AFETR)
Object type
Payload
Rocket body
Debris
Shape & HBR
Box + 2 Pan, 17.7 m
Radar Cross Section
33.884 m², Large (>1 m²)

Expand to show TLE details & history
Last TLE update: 12 hours ago

TLE from 12 hours ago
0 STARLINK-31949
1 59891U 24100G   26126.13918480  .00000188  00000-0  16358-4 0  9994
2 59891  43.0012 160.8941 0001071 276.9405  83.1325 15.27575936109849
Epoch: 2026-05-06T03:20Z
TLE epoch observation values (Epoch: 2026-05-06T03:20:25.566Z)
Latitude
-0.00002°
Longitude
-113.21641°
Altitude
482.749 km
Speed
7.626 km/s
True Right ascension
10h 43m 34s
True Declination
0° 00' 00"
Sunlit
Object was in full shadow at epoch
Visualization orbit readout
Latitude
Unknown
Longitude
Unknown
Altitude
Unknown
Speed
Unknown
Apparent Right ascension
Unknown
Apparent Declination
Unknown
Sunlit
N/A
Visualization observer readout
Local Sidereal Time
23:15:26
Azimuth
Unknown
Elevation
Unknown
Doppler factor
Unknown
Orbital elements
Apogee altitude
485.741 km
Perigee altitude
484.271 km
Semi-major axis
6,863.143 km
Eccentricity
0.00011
Inclination
43.0012°
RAAN
160.8941°
Arg. of periapsis
276.9405°
True anomaly
83.14468°
Mean anomaly
83.1325°
Eccentric anomaly
83.13859°
Mean motion
3.81732 °/min
Orbital period
94.31 mins
BSTAR
0.000016358
Loading maneuver chart data...
Computing Atmospheric mass density...
Loading historical data...
Loading historical data...
Loading historical data...
Loading historical data...
Loading historical data...
Loading historical data...
Loading historical data...

Documentation

Showing up to 5 results
|